Vorticity
-14 19 2 6 3 8 9 8 8 8 7 7 7 6 6 7 5 4 5 5 4 5 5 6 11 11 9 10 10 11 8 7 6 5 5 5 5 6 6 7 6 6 7
5 -6 13 5 3 5 6 7 7 7 6 5 4 4 5 8 -0 5 7 7 6 6 7 12 15 -0 1 3 6 7 9 9 7 13 10 8 19 8 8 8 7 7 5
13 5 8 4 3 4 3 4 6 8 6 5 4 6 9 8 0 4 6 7 8 7 8 11 4 4 -4 5 6 7 9 9 7 7 8 6 4 15 18 14 13 6 5
12 26 9 7 2 3 2 3 4 6 7 7 8 1 6 5 3 6 10 12 7 4 1 -0 -4 -5 2 6 7 7 8 9 7 6 6 6 5 5 2 -2 1 6 5
4 12 7 7 4 3 1 2 0 4 3 4 8 2 4 5 8 12 4 12 7 4 4 4 5 5 5 7 7 7 7 8 7 7 9 5 2 -5 5 3 2 3 4
3 9 11 3 7 4 2 1 3 5 1 6 6 4 4 6 3 2 5 3 2 2 3 4 5 5 6 8 7 7 8 7 6 8 7 6 5 3 3 4 4 5 5
3 6 11 12 7 5 4 8 3 -0 4 6 6 5 6 9 6 -1 0 2 4 2 3 5 6 6 6 9 7 6 6 8 7 6 7 7 5 5 5 4 5 5 4
12 9 2 12 10 12 4 -3 -2 2 6 2 5 5 5 6 6 2 -1 5 13 4 4 4 5 6 7 8 7 6 7 7 9 7 7 6 6 5 5 5 5 4 4
2 3 10 3 4 8 10 7 6 7 5 4 6 5 5 5 7 -1 1 1 9 5 5 4 5 6 6 8 7 4 7 6 9 10 11 9 10 8 8 7 6 5 4
5 3 4 3 3 2 3 6 8 5 4 2 7 6 5 2 4 1 6 6 8 6 5 5 5 6 6 7 7 5 6 6 7 8 7 7 5 3 8 8 8 5 6
4 4 6 5 -5 -0 -1 0 -1 -1 3 4 -0 3 8 3 4 3 4 5 8 7 5 5 5 5 7 7 8 5 6 5 7 6 6 8 5 3 3 3 5 5 4
10 5 3 6 8 4 2 -1 2 3 4 6 4 5 6 7 5 2 1 3 6 8 6 5 5 5 6 8 8 8 6 6 7 7 7 6 5 5 4 5 4 4 4
6 6 12 11 5 5 5 8 2 6 5 7 5 7 2 7 8 6 1 4 4 7 7 6 6 6 5 7 8 7 6 6 7 8 6 5 5 5 5 4 4 4 4
6 9 7 4 6 11 11 9 6 7 2 1 -2 0 6 7 1 6 0 3 4 4 6 7 6 7 5 7 8 7 7 6 6 8 9 5 5 5 5 4 4 5 5
5 7 10 12 11 6 5 9 12 8 9 5 11 10 2 3 4 5 5 6 3 5 4 6 7 6 7 6 6 7 7 8 7 7 8 7 5 5 5 5 5 5 5
7 8 9 6 12 11 8 7 9 7 9 17 5 9 9 8 3 4 5 2 6 7 6 5 5 8 7 7 6 7 6 7 7 8 8 7 6 5 5 5 5 6 5
3 7 6 7 10 12 11 10 9 7 5 3 18 6 1 7 8 8 4 5 7 5 8 6 5 5 7 7 6 6 6 6 6 8 10 8 7 6 5 6 6 6 6
13 8 4 6 7 10 10 11 9 11 5 4 3 16 11 3 3 8 5 4 6 2 7 5 8 5 6 7 8 6 7 7 6 7 9 8 7 7 6 6 6 6 5
5 6 9 5 8 11 10 10 13 14 12 9 5 4 14 9 5 2 5 8 4 10 2 4 5 6 6 7 7 7 6 7 6 6 7 11 8 7 7 6 6 6 5
11 16 14 14 13 10 9 7 10 14 10 9 18 9 3 5 15 3 4 5 7 7 6 2 7 0 3 8 7 7 6 5 5 6 6 7 9 8 8 7 7 6 5
16 15 25 13 10 8 6 7 6 8 12 8 9 13 13 8 5 12 9 2 5 6 6 6 -8 14 10 -7 4 5 6 6 5 5 5 6 6 8 8 7 6 7 5
8 20 11 9 9 7 9 9 10 10 11 13 11 11 13 12 8 2 15 8 7 5 3 5 4 11 7 16 7 14 4 7 6 6 6 6 7 7 7 9 7 7 6
-1 5 19 11 3 3 11 13 11 9 8 9 10 9 8 10 11 11 1 10 5 9 9 8 1 6 13 4 16 -6 -6 5 7 7 7 7 6 6 8 8 8 8 6
26 10 5 14 14 15 14 16 11 10 9 8 9 12 13 11 9 9 11 9 19 3 4 3 5 12 -25 12 12 23 -6 5 10 -3 4 12 8 7 7 8 8 8 8
24 18 18 14 14 11 14 8 10 10 9 7 8 10 10 12 12 10 8 12 9 3 5 4 1 3 16 1 17 -15 -11 8 2 -0 35 7 3 11 8 7 8 9 8
8 14 18 17 17 13 13 12 9 10 8 9 6 8 8 8 9 12 11 8 9 9 7 6 5 4 6 14 -2 -7 25 12 7 17 -2 -13 3 11 11 11 6 5 9
Height
3131 3132 3134 3135 3136 3136 3136 3137 3138 3139 3140 3141 3142 3143 3145 3146 3148 3149 3150 3152 3153 3155 3156 3156 3157 3157 3158 3159 3160 3161 3161 3163 3163 3164 3165 3167 3168 3169 3170 3171 3172 3172 3173
3130 3132 3133 3134 3135 3136 3136 3137 3139 3139 3140 3141 3142 3143 3145 3146 3147 3149 3149 3151 3153 3154 3155 3156 3158 3158 3159 3160 3160 3161 3161 3162 3162 3164 3165 3167 3168 3169 3170 3171 3172 3173 3174
3125 3129 3131 3132 3133 3135 3135 3137 3138 3139 3139 3140 3142 3143 3144 3145 3146 3148 3149 3150 3152 3153 3156 3157 3160 3159 3158 3160 3160 3161 3161 3161 3162 3163 3165 3166 3167 3170 3171 3172 3173 3173 3175
3120 3125 3128 3129 3131 3133 3135 3136 3137 3138 3139 3140 3141 3142 3144 3145 3146 3147 3148 3149 3152 3153 3155 3157 3158 3158 3158 3159 3160 3161 3162 3162 3162 3163 3164 3166 3168 3171 3173 3172 3173 3175 3176
3119 3121 3126 3128 3129 3131 3133 3134 3136 3137 3139 3140 3141 3142 3144 3145 3146 3146 3148 3149 3150 3153 3155 3156 3157 3157 3157 3158 3159 3161 3161 3162 3161 3162 3163 3166 3168 3169 3171 3172 3175 3176 3177
3117 3119 3123 3126 3127 3129 3131 3133 3135 3136 3137 3139 3140 3141 3143 3144 3146 3148 3148 3149 3150 3152 3154 3155 3155 3156 3157 3158 3159 3160 3161 3161 3161 3162 3164 3167 3169 3170 3172 3174 3175 3177 3178
3111 3117 3120 3123 3125 3127 3129 3131 3133 3135 3136 3137 3138 3140 3142 3144 3145 3146 3148 3148 3149 3150 3152 3154 3155 3156 3156 3157 3158 3159 3160 3161 3162 3163 3165 3167 3169 3171 3173 3174 3176 3177 3178
3110 3115 3117 3120 3122 3124 3126 3128 3130 3132 3134 3136 3137 3138 3140 3143 3144 3145 3147 3148 3148 3150 3151 3152 3154 3155 3156 3157 3158 3159 3160 3160 3162 3163 3165 3167 3169 3171 3173 3175 3176 3177 3179
3108 3109 3115 3116 3119 3122 3124 3126 3128 3130 3132 3134 3135 3137 3138 3140 3142 3143 3145 3146 3147 3148 3150 3151 3153 3154 3155 3156 3158 3159 3159 3160 3161 3163 3165 3167 3171 3171 3173 3175 3176 3178 3179
3104 3107 3110 3113 3115 3118 3120 3123 3125 3127 3129 3131 3133 3135 3136 3137 3139 3141 3143 3144 3146 3147 3148 3150 3151 3153 3154 3155 3157 3159 3160 3161 3162 3164 3165 3168 3170 3171 3173 3174 3175 3177 3179
3101 3104 3105 3108 3111 3113 3116 3118 3121 3123 3126 3128 3130 3132 3134 3135 3136 3139 3141 3142 3144 3145 3146 3148 3150 3152 3153 3155 3156 3158 3159 3161 3162 3164 3165 3167 3169 3171 3173 3174 3176 3177 3179
3096 3098 3101 3102 3104 3108 3110 3114 3115 3118 3120 3123 3126 3129 3131 3132 3134 3135 3138 3140 3142 3143 3145 3146 3148 3150 3152 3154 3155 3156 3157 3160 3161 3164 3165 3167 3168 3170 3172 3174 3176 3177 3179
3091 3092 3093 3096 3098 3100 3103 3106 3109 3113 3115 3118 3121 3124 3127 3128 3130 3132 3135 3137 3140 3141 3143 3144 3146 3148 3150 3152 3154 3154 3156 3156 3159 3163 3165 3167 3168 3170 3172 3173 3176 3177 3178
3085 3086 3087 3089 3090 3093 3095 3098 3102 3106 3109 3112 3115 3118 3121 3123 3125 3129 3132 3134 3137 3138 3140 3142 3144 3145 3148 3150 3152 3152 3154 3155 3157 3161 3163 3165 3167 3169 3171 3172 3174 3176 3178
3076 3079 3081 3081 3084 3086 3089 3091 3094 3098 3101 3105 3108 3112 3115 3118 3121 3124 3128 3131 3133 3135 3138 3140 3141 3142 3145 3147 3149 3150 3151 3153 3155 3158 3160 3163 3165 3167 3169 3171 3172 3174 3176
3067 3071 3073 3075 3076 3078 3081 3084 3087 3090 3095 3097 3102 3105 3109 3112 3116 3119 3123 3127 3129 3131 3134 3136 3138 3141 3142 3144 3146 3148 3149 3151 3151 3155 3158 3161 3163 3165 3167 3169 3171 3172 3174
3058 3061 3063 3066 3068 3070 3073 3077 3080 3084 3086 3090 3095 3099 3103 3106 3110 3114 3117 3121 3125 3127 3129 3133 3134 3137 3139 3141 3143 3146 3147 3148 3148 3152 3156 3158 3161 3163 3165 3167 3169 3170 3172
3048 3049 3053 3055 3059 3062 3066 3069 3073 3077 3080 3082 3088 3092 3096 3100 3105 3109 3112 3116 3119 3122 3124 3129 3130 3134 3136 3138 3140 3142 3144 3146 3145 3149 3153 3156 3158 3160 3161 3164 3166 3168 3169
3035 3038 3042 3045 3049 3053 3057 3061 3065 3069 3070 3076 3079 3085 3088 3093 3098 3102 3107 3111 3114 3116 3119 3123 3126 3130 3132 3134 3136 3138 3139 3142 3143 3146 3150 3152 3155 3157 3159 3160 3162 3164 3166
3026 3027 3031 3035 3039 3043 3048 3052 3056 3060 3062 3066 3073 3076 3082 3086 3090 3095 3100 3105 3108 3112 3113 3118 3121 3125 3128 3130 3132 3134 3136 3137 3139 3142 3145 3148 3151 3153 3155 3157 3159 3161 3162
3016 3019 3023 3025 3030 3035 3038 3042 3047 3051 3055 3057 3066 3071 3075 3079 3082 3087 3093 3098 3102 3105 3109 3111 3117 3118 3123 3124 3127 3130 3132 3134 3135 3137 3141 3144 3146 3148 3151 3153 3155 3157 3159
3009 3011 3015 3019 3023 3027 3030 3034 3038 3044 3050 3054 3058 3063 3067 3071 3075 3079 3085 3090 3095 3099 3103 3105 3110 3113 3116 3119 3122 3126 3127 3130 3131 3133 3136 3140 3142 3144 3146 3148 3150 3153 3155
3002 3004 3007 3011 3014 3019 3022 3026 3029 3035 3041 3045 3049 3054 3058 3064 3068 3072 3077 3083 3087 3092 3096 3100 3103 3107 3110 3114 3117 3120 3122 3124 3129 3128 3132 3135 3137 3139 3141 3143 3145 3148 3150
2991 2994 2998 3002 3006 3010 3014 3019 3022 3028 3033 3039 3044 3048 3052 3055 3061 3064 3070 3075 3079 3084 3087 3092 3097 3101 3103 3106 3111 3113 3116 3119 3121 3124 3126 3129 3133 3135 3136 3138 3140 3141 3144
2983 2985 2989 2992 2997 3002 3006 3011 3015 3020 3025 3031 3036 3040 3044 3048 3053 3057 3061 3066 3071 3075 3080 3084 3089 3092 3096 3100 3104 3108 3108 3110 3115 3117 3121 3124 3125 3130 3132 3132 3134 3136 3137
2976 2978 2982 2986 2990 2993 2998 3003 3007 3012 3017 3023 3029 3034 3038 3042 3046 3050 3054 3058 3063 3067 3072 3077 3082 3085 3089 3092 3096 3099 3101 3104 3108 3111 3115 3117 3118 3121 3125 3125 3126 3128 3130